When you browse on this site, cookies collect data to enhance your experience and personalize the content and advertising you see.
Visit our Privacy Policy to learn more. By continuing to use the site, you agree to this use of cookies and data.
  • în România
  • Lista ţărilor
  • Pe 7 zile
  • Temperatura apei
  • Hartă satelitară
  • Meteo pe hartă
  • Widget-uri
  • user-avatar
    Intrare

    Meteo pe oră la Kavala

    Astăzi, 24 Mai, Vineri

    Timp Temperatura Precipitaţii Vânt Presiune Umiditate
    00:00 +18°C° 0.7 mm 2 m/s 755 mmHg 77%
    01:00 +18°C° 0.7 mm 2 m/s 755 mmHg 77%
    02:00 +17°C° 0.7 mm 2 m/s 754 mmHg 77%
    03:00 +17°C° 0.7 mm 2 m/s 754 mmHg 78%
    04:00 +17°C° 0.7 mm 2 m/s 754 mmHg 79%
    05:00 +17°C° 0.7 mm 2 m/s 754 mmHg 80%
    06:00 +19°C° 0.5 mm 1 m/s 755 mmHg 77%
    07:00 +20°C° 0.5 mm 1 m/s 755 mmHg 73%
    08:00 +21°C° 0.5 mm 1 m/s 755 mmHg 70%
    09:00 +22°C° 0.9 mm 1 m/s 755 mmHg 69%
    10:00 +22°C° 0.9 mm 1 m/s 755 mmHg 67%
    11:00 +23°C° 0.9 mm 2 m/s 755 mmHg 66%
    12:00 +23°C° 1.5 mm 2 m/s 755 mmHg 68%
    13:00 +23°C° 1.5 mm 2 m/s 755 mmHg 70%
    14:00 +21°C° 1.5 mm 2 m/s 755 mmHg 71%
    15:00 +21°C° 0.4 mm 2 m/s 754 mmHg 72%
    16:00 +21°C° 0.4 mm 2 m/s 754 mmHg 74%
    17:00 +21°C° 0.4 mm 2 m/s 754 mmHg 75%
    18:00 +20°C° 0.1 mm 2 m/s 754 mmHg 80%
    19:00 +19°C° 0.1 mm 1 m/s 754 mmHg 85%
    20:00 +18°C° 0.1 mm 1 m/s 754 mmHg 90%
    21:00 +18°C° 0 mm 1 m/s 755 mmHg 91%
    22:00 +16°C° 0 mm 1 m/s 755 mmHg 91%
    23:00 +16°C° 0 mm 1 m/s 755 mmHg 92%

    Mâine, 25 Mai, Sâmbătă

    Timp Temperatura Precipitaţii Vânt Presiune Umiditate
    00:00 +16°C° 0.1 mm 1 m/s 756 mmHg 92%
    01:00 +16°C° 0.1 mm 1 m/s 756 mmHg 91%
    02:00 +15°C° 0.1 mm 1 m/s 756 mmHg 91%
    03:00 +15°C° 0 mm 1 m/s 756 mmHg 89%
    04:00 +15°C° 0 mm 1 m/s 756 mmHg 88%
    05:00 +15°C° 0 mm 1 m/s 756 mmHg 87%
    06:00 +16°C° 0 mm 1 m/s 756 mmHg 80%
    07:00 +19°C° 0 mm 1 m/s 756 mmHg 73%
    08:00 +19°C° 0 mm 0 m/s 757 mmHg 66%
    09:00 +22°C° 0 mm 1 m/s 757 mmHg 62%
    10:00 +24°C° 0 mm 2 m/s 757 mmHg 57%
    11:00 +25°C° 0 mm 2 m/s 757 mmHg 53%
    12:00 +25°C° 0 mm 3 m/s 757 mmHg 52%
    13:00 +26°C° 0 mm 3 m/s 757 mmHg 51%
    14:00 +27°C° 0 mm 3 m/s 757 mmHg 50%
    15:00 +26°C° 0 mm 3 m/s 757 mmHg 52%
    16:00 +26°C° 0 mm 3 m/s 756 mmHg 54%
    17:00 +26°C° 0 mm 3 m/s 756 mmHg 56%
    18:00 +24°C° 0 mm 2 m/s 756 mmHg 64%
    19:00 +21°C° 0 mm 2 m/s 757 mmHg 71%
    20:00 +19°C° 0 mm 2 m/s 757 mmHg 79%
    21:00 +19°C° 0 mm 2 m/s 757 mmHg 80%
    22:00 +19°C° 0 mm 1 m/s 758 mmHg 81%
    23:00 +19°C° 0 mm 1 m/s 758 mmHg 82%

    Poimâine, 26 Mai, Duminică

    Timp Temperatura Precipitaţii Vânt Presiune Umiditate
    00:00 +17°C° 0 mm 2 m/s 758 mmHg 82%
    01:00 +17°C° 0 mm 2 m/s 758 mmHg 82%
    02:00 +17°C° 0 mm 2 m/s 758 mmHg 82%
    03:00 +17°C° 0 mm 2 m/s 758 mmHg 81%
    04:00 +17°C° 0 mm 2 m/s 758 mmHg 80%
    05:00 +16°C° 0 mm 2 m/s 758 mmHg 80%
    06:00 +18°C° 0 mm 2 m/s 759 mmHg 74%
    07:00 +20°C° 0 mm 2 m/s 759 mmHg 69%
    08:00 +23°C° 0 mm 1 m/s 759 mmHg 64%
    09:00 +24°C° 0 mm 2 m/s 759 mmHg 61%
    10:00 +25°C° 0 mm 2 m/s 759 mmHg 59%
    11:00 +26°C° 0 mm 2 m/s 759 mmHg 56%
    12:00 +26°C° 0 mm 2 m/s 759 mmHg 55%
    13:00 +27°C° 0 mm 2 m/s 759 mmHg 54%
    14:00 +27°C° 0 mm 2 m/s 759 mmHg 53%
    15:00 +27°C° 0 mm 2 m/s 759 mmHg 54%
    16:00 +27°C° 0 mm 2 m/s 758 mmHg 56%
    17:00 +27°C° 0 mm 2 m/s 758 mmHg 58%
    18:00 +25°C° 0 mm 1 m/s 758 mmHg 64%
    19:00 +23°C° 0 mm 1 m/s 759 mmHg 71%
    20:00 +19°C° 0 mm 0 m/s 759 mmHg 78%
    21:00 +20°C° 0 mm 1 m/s 759 mmHg 79%
    22:00 +20°C° 0 mm 1 m/s 759 mmHg 79%
    23:00 +20°C° 0 mm 1 m/s 759 mmHg 80%

    27 Mai, Luni

    Timp Temperatura Precipitaţii Vânt Presiune Umiditate
    00:00 +19°C° 0 mm 1 m/s 759 mmHg 81%
    01:00 +19°C° 0 mm 1 m/s 759 mmHg 82%
    02:00 +19°C° 0 mm 1 m/s 759 mmHg 83%
    03:00 +19°C° 0 mm 1 m/s 759 mmHg 83%
    04:00 +18°C° 0 mm 2 m/s 759 mmHg 83%
    05:00 +18°C° 0 mm 2 m/s 759 mmHg 83%
    06:00 +20°C° 0 mm 2 m/s 759 mmHg 76%
    07:00 +23°C° 0 mm 1 m/s 759 mmHg 70%
    08:00 +24°C° 0 mm 1 m/s 759 mmHg 63%
    09:00 +25°C° 0 mm 1 m/s 759 mmHg 59%
    10:00 +26°C° 0 mm 2 m/s 758 mmHg 54%
    11:00 +27°C° 0 mm 2 m/s 758 mmHg 50%
    12:00 +28°C° 0 mm 2 m/s 758 mmHg 47%
    13:00 +28°C° 0 mm 2 m/s 758 mmHg 44%
    14:00 +29°C° 0 mm 2 m/s 757 mmHg 42%
    15:00 +29°C° 0 mm 1 m/s 757 mmHg 43%
    16:00 +28°C° 0 mm 1 m/s 757 mmHg 43%
    17:00 +28°C° 0 mm 1 m/s 757 mmHg 44%
    18:00 +26°C° 0 mm 1 m/s 757 mmHg 49%
    19:00 +22°C° 0 mm 0 m/s 757 mmHg 55%
    20:00 +20°C° 0 mm 0 m/s 757 mmHg 60%
    21:00 +22°C° 0 mm 1 m/s 757 mmHg 60%
    22:00 +21°C° 0 mm 1 m/s 757 mmHg 60%
    23:00 +20°C° 0 mm 2 m/s 757 mmHg 60%

    28 Mai, Marţi

    Timp Temperatura Precipitaţii Vânt Presiune Umiditate
    00:00 +20°C° 0 mm 2 m/s 757 mmHg 59%
    01:00 +19°C° 0 mm 2 m/s 756 mmHg 58%
    02:00 +19°C° 0 mm 2 m/s 756 mmHg 57%
    03:00 +19°C° 0 mm 2 m/s 756 mmHg 57%
    04:00 +18°C° 0 mm 2 m/s 756 mmHg 57%
    05:00 +18°C° 0 mm 2 m/s 756 mmHg 57%
    06:00 +20°C° 0 mm 2 m/s 756 mmHg 57%
    07:00 +23°C° 0 mm 2 m/s 756 mmHg 57%
    08:00 +25°C° 0 mm 2 m/s 755 mmHg 57%
    09:00 +26°C° 0 mm 2 m/s 755 mmHg 55%
    10:00 +27°C° 0 mm 3 m/s 755 mmHg 53%
    11:00 +28°C° 0 mm 3 m/s 755 mmHg 51%
    12:00 +28°C° 0 mm 3 m/s 755 mmHg 50%
    13:00 +28°C° 0 mm 3 m/s 754 mmHg 49%
    14:00 +28°C° 0 mm 3 m/s 754 mmHg 48%
    15:00 +27°C° 0 mm 3 m/s 754 mmHg 50%
    16:00 +27°C° 0 mm 2 m/s 754 mmHg 53%
    17:00 +26°C° 0 mm 2 m/s 753 mmHg 55%
    18:00 +24°C° 0 mm 2 m/s 754 mmHg 64%
    19:00 +22°C° 0 mm 1 m/s 754 mmHg 72%
    20:00 +20°C° 0 mm 1 m/s 754 mmHg 81%
    21:00 +20°C° 0 mm 1 m/s 754 mmHg 81%
    22:00 +20°C° 0 mm 1 m/s 755 mmHg 81%
    23:00 +18°C° 0 mm 2 m/s 755 mmHg 81%

    29 Mai, Miercuri

    Timp Temperatura Precipitaţii Vânt Presiune Umiditate
    00:00 +18°C° 0 mm 2 m/s 755 mmHg 79%
    01:00 +18°C° 0 mm 2 m/s 755 mmHg 77%
    02:00 +18°C° 0 mm 2 m/s 755 mmHg 75%
    03:00 +18°C° 0 mm 2 m/s 756 mmHg 74%
    04:00 +17°C° 0 mm 2 m/s 756 mmHg 74%
    05:00 +18°C° 0 mm 1 m/s 756 mmHg 73%
    06:00 +20°C° 0 mm 1 m/s 756 mmHg 71%
    07:00 +22°C° 0 mm 1 m/s 757 mmHg 68%
    08:00 +22°C° 0 mm 0 m/s 757 mmHg 66%
    09:00 +25°C° 0 mm 1 m/s 757 mmHg 63%
    10:00 +26°C° 0 mm 1 m/s 757 mmHg 59%
    11:00 +27°C° 0 mm 1 m/s 757 mmHg 56%
    12:00 +28°C° 0 mm 2 m/s 757 mmHg 55%
    13:00 +28°C° 0 mm 3 m/s 757 mmHg 54%
    14:00 +29°C° 0 mm 3 m/s 757 mmHg 53%
    15:00 +29°C° 0 mm 3 m/s 757 mmHg 55%
    16:00 +28°C° 0 mm 3 m/s 757 mmHg 57%
    17:00 +28°C° 0 mm 3 m/s 757 mmHg 59%
    18:00 +26°C° 0 mm 2 m/s 757 mmHg 66%
    19:00 +24°C° 0 mm 2 m/s 757 mmHg 73%
    20:00 +22°C° 0 mm 1 m/s 757 mmHg 80%
    21:00 +22°C° 0 mm 1 m/s 758 mmHg 81%
    22:00 +22°C° 0 mm 1 m/s 758 mmHg 82%
    23:00 +21°C° 0 mm 1 m/s 759 mmHg 83%
    Arată mai mult